SYRACUSE 3B

Last updated on Thu Oct 16 2025 00:02:45 GMT+0000 (Coordinated Universal Time)

1 29273U 06033B 25288.55749356 .00000010 00000+0 00000+0 0 9993 2 29273 2.2699 83.1307 0004664 140.9672 4.3097 1.00274706 70225
UTC large
Height (km)
Speed (km/s)
/
Latitude / Longitude
Inclination (degrees)
Orbital Period (minutes)
Azimuth
Elevation
Range (km)
Doppler Factor

Next 0 passes for location: London (51.5072 / 0.1276)

Sorry there are no passes over London.